This demonstration page uses our WeatherBlox Daily Observations layout. Learn more.

Left ArrowRight Arrow

34.02893, -84.19858

Hourly Observations for May 28, 2022

Temp ( °F °C ) Dew Point ( °F °C ) Humidity (%) Winds ( mph kmh ) Pressure ( in mb ) Visibility ( mi km ) Precip ( " mm )
12:53 am 00:53 Clear 65 18.3 56 13.3 73 73 NNW 8 13 29.89 1012 10 16 0.00 0.00
1:53 am 01:53 Clear 63 17.2 56 13.3 78 78 WNW 5 7 29.89 1012 10 16 0.00 0.00
2:53 am 02:53 Clear 62 16.7 56 13.3 80 80 NW 5 7 29.88 1012 10 16 0.00 0.00
3:53 am 03:53 Clear 61 16.1 55 12.8 81 81 NW 5 7 29.88 1012 10 16 0.00 0.00
4:53 am 04:53 Clear 61 16.1 55 12.8 81 81 NNW 7 11 29.88 1012 10 16 0.00 0.00
5:53 am 05:53 Clear 59 15 55 12.8 87 87 NNW 6 9 29.89 1012 10 16 0.00 0.00
6:53 am 06:53 Sunny 57 13.9 55 12.8 93 93 SW 3 6 29.92 1013 10 16 0.00 0.00
7:53 am 07:53 Sunny 62 16.7 57 13.9 84 84 NW 5 7 29.92 1013 10 16 0.00 0.00
8:53 am 08:53 Sunny 65 18.3 57 13.9 76 76 NW 5 7 29.93 1014 10 16 0.00 0.00
9:53 am 09:53 Sunny 70 21.1 57 13.9 64 64 NW 6 9 29.93 1013 10 16 0.00 0.00
10:53 am 10:53 Sunny 72 22.2 55 12.8 55 55 NW 8 13 29.93 1014 10 16 0.00 0.00
11:53 am 11:53 Sunny 75 23.9 56 13.3 52 52 WNW 7 11 29.93 1014 10 16 0.00 0.00
12:53 pm 12:53 Sunny 77 25 56 13.3 48 48 Calm 29.93 1014 10 16 0.00 0.00
1:53 pm 13:53 Sunny 78 25.6 57 13.9 48 48 WNW 7 11 29.91 1013 10 16 0.00 0.00
2:53 pm 14:53 Mostly Sunny 78 25.6 58 14.4 50 50 Calm 29.90 1013 10 16 0.00 0.00
3:53 pm 15:53 Sunny 80 26.7 58 14.4 47 47 VRB 7 11 29.89 1012 10 16 0.00 0.00
4:53 pm 16:53 Sunny 80 26.7 58 14.4 47 47 VRB 7 11 29.88 1012 10 16 0.00 0.00
5:53 pm 17:53 Mostly Sunny 80 26.7 58 14.4 47 47 NNW 7 11 29.87 1012 10 16 0.00 0.00
6:53 pm 18:53 Sunny 77 25 57 13.9 50 50 WNW 7 11 29.88 1012 10 16 0.00 0.00
7:53 pm 19:53 Sunny 77 25 58 14.4 52 52 NNW 7 11 29.88 1012 10 16 0.00 0.00
8:53 pm 20:53 Clear 73 22.8 58 14.4 59 59 NW 3 6 29.89 1012 10 16 0.00 0.00
9:53 pm 21:53 Clear 70 21.1 59 15 68 68 NNW 3 6 29.90 1013 10 16 0.00 0.00
10:53 pm 22:53 Clear 66 18.9 59 15 78 78 Calm 29.92 1013 10 16 0.00 0.00
11:53 pm 23:53 Clear 65 18.3 60 15.6 84 84 Calm 29.93 1014 10 16 0.00 0.00

Powered by AerisWeather